Weather reports worldwide

Advertisment
Sennybridge, United Kingdom (3507): temperature & dewpoint: 11.10.2018 05:00:00 - 17.10.2018 05:00:00 (BST)Sennybridge, United Kingdom (3507): temperature -20cm & temperature -100cm: 11.10.2018 05:00:00 - 17.10.2018 05:00:00 (BST)Sennybridge, United Kingdom (3507): wind speed & gusts: 11.10.2018 05:00:00 - 17.10.2018 05:00:00 (BST)Sennybridge, United Kingdom (3507): wind direction: 11.10.2018 05:00:00 - 17.10.2018 05:00:00 (BST)Sennybridge, United Kingdom (3507): reduced air pressure: 11.10.2018 05:00:00 - 17.10.2018 05:00:00 (BST)Sennybridge, United Kingdom (3507): visibility: 11.10.2018 05:00:00 - 17.10.2018 05:00:00 (BST)Sennybridge, United Kingdom (3507): precipitation: 11.10.2018 05:00:00 - 17.10.2018 05:00:00 (BST)
Date & Time tt [°C] td [°C] tt -20cm [°C] tt -100cm [°C] ff [km/h] ff [kn] fx [km/h] fx [kn] dd ppp [hPa] vv [km] rr [mm]
17.10.2018 05:00:00 10,1 9,8 - - 8 4 - - WSW 1016,4 7 0,0
17.10.2018 04:00:00 10,7 10,4 - - 8 4 - - W 1016,1 9 0,0
17.10.2018 03:00:00 10,8 10,6 - - 9 5 - - WSW 1016,1 11 0,0
17.10.2018 02:00:00 11,1 10,8 - - 9 5 - - WSW 1015,9 16 0,4
17.10.2018 01:00:00 11,6 11,3 - - 22 12 - - SW 1015,6 2,4 0,0
17.10.2018 00:00:00 11,1 10,8 - - 13 7 - - SSW 1015,5 7 0,0
16.10.2018 23:00:00 10,4 10,2 - - 11 6 - - SW 1015,6 7 0,0
16.10.2018 22:00:00 10,5 9,7 - - 13 7 - - SW 1015,7 4,2 0,0
16.10.2018 21:00:00 10,7 9,4 - - 16 9 - - SSW 1015,6 40 0,0
16.10.2018 20:00:00 10,1 8,9 - - 11 6 - - SSW 1015,7 40 0,0
16.10.2018 19:00:00 9,2 8,1 - - 15 8 - - SSW 1015,6 40 0,0
16.10.2018 18:00:00 10,5 8,8 - - 16 9 - - SW 1015,2 50 0,0
16.10.2018 17:00:00 11,6 9,4 - - 21 11 - - SW 1015,0 40 0,2
16.10.2018 16:00:00 11,6 11,3 - - 18 10 - - SW 1014,8 8 0,0
16.10.2018 15:00:00 11,7 11,3 - - 18 10 - - SW 1014,9 8 0,0
16.10.2018 14:00:00 12,0 11,5 - - 21 11 - - SW 1014,7 12 0,2
16.10.2018 13:00:00 12,3 11,9 - - 18 10 - - SW 1014,4 5 0,0
16.10.2018 12:00:00 12,9 12,4 - - 18 10 - - SW 1014,3 10 0,2
16.10.2018 11:00:00 12,6 12,1 - - 15 8 - - SSW 1014,4 3,8 0,0
16.10.2018 10:00:00 12,4 11,7 13,0 13,0 15 8 - - SSW 1014,5 12 0,0
16.10.2018 09:00:00 11,9 11,4 - - 18 10 - - SSE 1014,4 7 0,0
16.10.2018 08:00:00 11,4 11,0 - - 18 10 - - SSE 1014,1 10 0,0
16.10.2018 07:00:00 10,9 10,6 - - 8 4 - - SW 1013,8 7 0,0
16.10.2018 06:00:00 10,6 10,3 - - 4 2 - - WSW 1014,0 7 0,0
16.10.2018 05:00:00 10,3 10,1 - - 5 3 - - S 1014,2 11 0,0
16.10.2018 04:00:00 10,0 9,8 - - 4 2 - - WNW 1014,2 9 0,0
16.10.2018 03:00:00 9,8 9,7 - - 4 2 - - SSE 1014,4 9 0,0
16.10.2018 02:00:00 9,6 9,5 - - 5 3 - - SE 1014,7 1,0 0,0
16.10.2018 01:00:00 9,5 9,1 - - 4 2 - - N 1015,0 6 0,0
16.10.2018 00:00:00 9,4 9,0 - - 2 1 - - N 1015,0 9 0,0
15.10.2018 23:00:00 9,4 8,8 - - 4 2 - - NNE 1014,9 19 0,0
15.10.2018 22:00:00 9,4 8,7 - - 11 6 - - E 1015,1 23 0,0
15.10.2018 21:00:00 9,4 8,7 - - 11 6 - - ENE 1014,9 23 0,0
15.10.2018 20:00:00 9,3 8,5 - - 11 6 - - ENE 1014,6 13 0,0
15.10.2018 19:00:00 9,2 8,3 - - 15 8 - - ENE 1014,6 8 0,0
15.10.2018 18:00:00 9,5 8,2 - - 13 7 - - ENE 1014,1 45 0,0
15.10.2018 17:00:00 9,8 8,4 - - 9 5 - - ENE 1013,7 50 0,0
15.10.2018 16:00:00 9,9 8,3 - - 16 9 - - ENE 1013,5 30 0,0
15.10.2018 15:00:00 9,8 8,1 - - 15 8 - - NE 1013,6 45 0,0
15.10.2018 14:00:00 10,7 7,9 - - 11 6 - - ENE 1013,2 50 0,0
15.10.2018 13:00:00 10,3 7,7 - - 15 8 - - NE 1013,0 27 0,0
15.10.2018 12:00:00 10,2 7,7 - - 13 7 - - NE 1013,0 50 0,0
15.10.2018 11:00:00 8,1 6,4 - - 15 8 - - NNE 1013,3 45 0,0
15.10.2018 10:00:00 7,1 6,0 13,2 12,9 15 8 - - NNE 1013,3 22 0,0
15.10.2018 09:00:00 6,8 5,5 - - 15 8 - - NNE 1012,8 23 0,0
15.10.2018 08:00:00 6,6 5,4 - - 13 7 - - NNE 1012,6 22 0,0
15.10.2018 07:00:00 6,6 5,3 - - 11 6 - - NNE 1012,2 24 0,0
15.10.2018 06:00:00 6,8 5,1 - - 11 6 - - NE 1011,6 50 0,0
15.10.2018 05:00:00 6,9 5,1 - - 11 6 - - NNE 1011,2 50 0,0
15.10.2018 04:00:00 6,9 5,1 - - 13 7 - - NE 1011,4 50 0,0
15.10.2018 03:00:00 6,7 5,3 - - 13 7 - - NE 1011,5 35 0,0
15.10.2018 02:00:00 6,6 5,3 - - 9 5 - - NNE 1011,8 23 0,0
15.10.2018 01:00:00 6,6 5,5 - - 13 7 - - NE 1012,1 21 0,0
15.10.2018 00:00:00 6,3 5,5 - - 13 7 - - NE 1011,7 40 0,0
14.10.2018 23:00:00 5,7 4,9 - - 8 4 - - NNE 1011,7 50 0,0
14.10.2018 22:00:00 5,2 4,7 - - 5 3 - - NE 1011,8 50 0,0
14.10.2018 21:00:00 5,3 4,8 - - 5 3 - - NNE 1011,5 50 0,0
14.10.2018 20:00:00 4,5 3,2 - - 4 2 - - ENE 1011,6 50 0,0
14.10.2018 19:00:00 7,2 5,2 - - 4 2 - - NE 1010,8 50 0,0
14.10.2018 18:00:00 8,8 5,6 - - 5 3 - - NE 1009,9 50 0,0
14.10.2018 17:00:00 9,7 6,0 - - 8 4 - - NNE 1009,6 50 0,0
14.10.2018 16:00:00 10,7 7,3 - - 9 5 - - NNE 1009,1 40 0,0
14.10.2018 15:00:00 10,7 6,8 - - 11 6 - - ENE 1008,6 35 0,0
14.10.2018 14:00:00 9,9 6,9 - - 8 4 - - NE 1008,6 35 0,0
14.10.2018 13:00:00 9,6 7,4 - - 8 4 - - N 1008,8 50 0,2
14.10.2018 12:00:00 8,8 7,0 - - 16 9 - - E 1008,5 35 0,0
14.10.2018 11:00:00 8,9 8,1 - - 4 2 - - N 1008,7 35 0,2
14.10.2018 10:00:00 8,3 8,0 14,0 13,0 8 4 - - E 1008,9 30 1,4
14.10.2018 09:00:00 8,2 7,8 - - 4 2 - - NE 1008,6 10 1,2
14.10.2018 08:00:00 8,2 7,8 - - 5 3 - - NNE 1007,5 12 0,8
14.10.2018 07:00:00 8,4 7,7 - - 9 5 - - NNE 1007,5 13 0,8
14.10.2018 06:00:00 8,5 7,7 - - 5 3 - - NNE 1007,5 28 0,2
14.10.2018 05:00:00 9,0 7,7 - - 4 2 - - N 1007,4 50 0,0
14.10.2018 04:00:00 9,3 8,4 - - 8 4 - - NNW 1007,3 50 0,0
14.10.2018 03:00:00 9,7 9,3 - - 2 1 - - WNW 1006,8 10 0,0
14.10.2018 02:00:00 10,1 9,4 - - 4 2 - - W 1006,3 50 0,2
14.10.2018 01:00:00 11,7 10,9 - - 21 11 - - SW 1004,8 8 0,0
14.10.2018 00:00:00 11,7 10,2 - - 26 14 48 26 SW 1004,5 30 0,0
13.10.2018 23:00:00 12,8 11,2 - - 31 17 50 27 SW 1004,2 25 0,0
13.10.2018 22:00:00 13,0 11,4 - - 31 17 48 26 SW 1004,0 26 0,0
13.10.2018 21:00:00 13,2 12,0 - - 34 18 59 32 SW 1003,5 26 0,0
13.10.2018 20:00:00 14,2 12,8 - - 41 22 63 34 SW 1002,8 20 0,8
13.10.2018 19:00:00 15,0 13,8 - - 37 20 65 35 SSW 1002,1 7 1,8
13.10.2018 18:00:00 15,5 14,4 - - 35 19 67 36 SSW 1000,7 7 1,2
13.10.2018 17:00:00 16,1 15,0 - - 44 24 70 38 SW 1000,6 13 0,6
13.10.2018 16:00:00 16,5 15,5 - - 41 22 65 35 SSW 1000,1 5 0,0
13.10.2018 15:00:00 16,4 16,0 - - 44 24 87 47 SSW 1000,4 7 2,8
13.10.2018 14:00:00 17,1 14,9 - - 44 24 76 41 SSW 999,8 4,0 0,0
13.10.2018 13:00:00 17,7 15,0 - - 42 23 76 41 SSW 1000,7 30 0,0
13.10.2018 12:00:00 17,2 16,5 - - 44 24 81 44 SSW 1001,8 8 0,0
13.10.2018 11:00:00 17,0 16,5 - - 50 27 91 49 SSW 1002,0 17 1,4
13.10.2018 10:00:00 17,3 16,9 13,7 13,0 48 26 78 42 SSW 1001,8 2,6 6,4
13.10.2018 09:00:00 17,2 16,3 - - 42 23 74 40 SSW 1001,9 9 2,0
13.10.2018 08:00:00 16,8 16,0 - - 34 18 55 30 S 1001,4 5 2,6
13.10.2018 07:00:00 16,6 15,9 - - 28 15 52 28 SSW 1002,2 15 0,8
13.10.2018 06:00:00 16,6 16,0 - - 34 18 50 27 SSW 1002,8 12 1,0
13.10.2018 05:00:00 16,1 16,0 - - 26 14 - - SSW 1003,1 11 2,4
13.10.2018 04:00:00 15,1 15,0 - - 16 9 - - SSW 1003,9 4,3 1,4
13.10.2018 03:00:00 14,3 14,2 - - 16 9 - - SSW 1004,7 12 4,2
13.10.2018 02:00:00 14,0 13,8 - - 16 9 - - SW 1005,0 5 4,8
13.10.2018 01:00:00 14,6 14,2 - - 22 12 52 28 WSW 1005,1 4,2 3,8
13.10.2018 00:00:00 16,2 15,7 - - 28 15 52 28 SSW 1004,3 5 5,4
12.10.2018 23:00:00 16,1 15,7 - - 29 16 59 32 SSW 1004,1 2,6 5,8
12.10.2018 22:00:00 16,2 15,7 - - 37 20 61 33 SSW 1003,6 4,0 2,4
12.10.2018 21:00:00 16,1 15,4 - - 42 23 68 37 SSW 1003,5 4,6 5,4
12.10.2018 20:00:00 16,1 15,4 - - 42 23 68 37 SSW 1002,5 3,3 2,6
12.10.2018 19:00:00 15,8 15,3 - - 39 21 70 38 SSW 1001,9 5 2,2
12.10.2018 18:00:00 15,8 15,3 - - 44 24 83 45 SSW 1001,6 7 1,8
12.10.2018 17:00:00 15,7 15,5 - - 44 24 81 44 SSW 1000,7 4,3 3,0
12.10.2018 16:00:00 15,7 15,2 - - 48 26 78 42 SSW 1000,6 3,3 7,2
12.10.2018 15:00:00 15,5 14,9 - - 42 23 78 42 SSW 999,8 2,8 3,8
12.10.2018 14:00:00 15,3 14,6 - - 48 26 81 44 SSW 999,9 5 3,4
12.10.2018 13:00:00 14,5 13,9 - - 48 26 72 39 S 999,4 3,8 4,2
12.10.2018 12:00:00 14,2 13,5 - - 41 22 63 34 S 999,5 4,0 5,4
12.10.2018 11:00:00 13,9 13,4 - - 29 16 - - S 1000,7 5 5,6
12.10.2018 10:00:00 14,1 13,5 13,0 13,0 28 15 61 33 SSW 1001,7 5 4,2
12.10.2018 09:00:00 14,1 13,4 - - 41 22 63 34 SSW 1001,4 3,2 3,0
12.10.2018 08:00:00 13,8 13,0 - - 42 23 68 37 SSW 999,8 7 1,4
12.10.2018 07:00:00 13,1 12,4 - - 42 23 67 36 S 999,4 3,5 2,8
12.10.2018 06:00:00 12,1 11,4 - - 42 23 65 35 S 998,9 4,6 2,2
12.10.2018 05:00:00 11,6 10,4 - - 41 22 65 35 S 999,4 6 0,8
12.10.2018 04:00:00 11,4 9,8 - - 29 16 55 30 S 1000,8 13 0,4
12.10.2018 03:00:00 11,5 9,2 - - 31 17 54 29 S 1001,3 20 0,0
12.10.2018 02:00:00 10,9 8,3 - - 26 14 46 25 S 1002,7 45 0,0
12.10.2018 01:00:00 10,7 9,0 - - 21 11 - - S 1003,2 30 0,0
12.10.2018 00:00:00 10,6 9,1 - - 18 10 - - S 1003,0 35 0,0
11.10.2018 23:00:00 9,8 8,3 - - 18 10 - - S 1004,2 50 0,0
11.10.2018 22:00:00 8,8 7,8 - - 18 10 - - SSE 1004,0 50 0,0
11.10.2018 21:00:00 8,6 7,8 - - 9 5 - - SSW 1004,1 45 0,0
11.10.2018 20:00:00 7,5 6,7 - - 8 4 - - SSW 1003,4 50 0,0
11.10.2018 19:00:00 8,3 7,3 - - 5 3 - - S 1002,8 50 0,0
11.10.2018 18:00:00 11,2 9,7 - - 13 7 - - WSW 1001,6 50 0,0
11.10.2018 17:00:00 13,0 9,9 - - 2 1 - - W 1000,5 50 0,0
11.10.2018 16:00:00 11,1 10,3 - - 9 5 - - NW 999,6 40 0,6
11.10.2018 15:00:00 13,9 12,5 - - 28 15 - - S 997,7 30 0,8
11.10.2018 14:00:00 13,3 11,7 - - 24 13 - - SSE 998,2 19 0,6
11.10.2018 13:00:00 13,2 10,7 - - 26 14 - - S 998,4 26 0,4
11.10.2018 12:00:00 13,4 12,0 - - 22 12 - - S 998,7 17 0,8
11.10.2018 11:00:00 13,4 12,3 - - 26 14 46 25 S 999,1 6 0,8
11.10.2018 10:00:00 13,0 11,9 13,2 13,0 24 13 50 27 S 999,4 3,7 1,0
11.10.2018 09:00:00 13,6 11,0 - - 28 15 48 26 S 998,7 45 0,0
11.10.2018 08:00:00 13,6 11,5 - - 29 16 - - S 998,4 28 0,0
11.10.2018 07:00:00 14,2 12,2 - - 16 9 - - S 998,6 19 0,0
11.10.2018 06:00:00 13,9 12,1 - - 21 11 - - SSE 998,5 22 0,0
11.10.2018 05:00:00 12,4 11,1 - - 15 8 - - SSE 999,3 14 0,0

tt = temperature
td = dewpoint
tt -20cm = temperature -20cm
tt -100cm = temperature -100cm
ff = wind speed
fx = gusts
dd = wind direction
ppp = reduced air pressure
vv = visibility
rr = precipitation

Next stations